TimeCST,TemperatureF,Dew PointF,Humidity,Sea Level PressureIn,VisibilityMPH,Wind Direction,Wind SpeedMPH,Gust SpeedMPH,PrecipitationIn,Events,Conditions,WindDirDegrees,DateUTC
12:15 AM,32.0,32.0,100,29.91,0.2,NE,3.5,-,N/A,Fog,Fog,40,2012-11-07 06:15:00
12:35 AM,32.0,32.0,100,29.91,0.2,Calm,Calm,-,N/A,Fog,Fog,0,2012-11-07 06:35:00
12:55 AM,32.0,32.0,100,29.92,0.5,Calm,Calm,-,N/A,Fog,Fog,0,2012-11-07 06:55:00
1:15 AM,32.0,32.0,100,29.93,0.5,Calm,Calm,-,N/A,Fog,Fog,0,2012-11-07 07:15:00
1:35 AM,32.0,32.0,100,29.94,0.5,NE,3.5,-,N/A,Fog,Fog,40,2012-11-07 07:35:00
1:55 AM,32.0,32.0,100,29.95,1.0,Calm,Calm,-,N/A,,Overcast,0,2012-11-07 07:55:00
2:15 AM,32.0,32.0,100,29.96,1.5,Calm,Calm,-,N/A,,Overcast,0,2012-11-07 08:15:00
2:35 AM,32.0,32.0,100,29.96,1.2,Calm,Calm,-,N/A,,Overcast,0,2012-11-07 08:35:00
2:55 AM,32.0,32.0,100,29.97,0.8,Calm,Calm,-,N/A,,Overcast,0,2012-11-07 08:55:00
3:15 AM,32.0,32.0,100,29.97,0.8,Calm,Calm,-,N/A,,Overcast,0,2012-11-07 09:15:00
3:35 AM,32.0,32.0,100,29.97,1.0,Calm,Calm,-,N/A,,Overcast,0,2012-11-07 09:35:00
3:55 AM,32.0,32.0,100,29.98,0.8,Calm,Calm,-,N/A,,Overcast,0,2012-11-07 09:55:00
4:15 AM,32.0,32.0,100,29.98,0.8,Calm,Calm,-,N/A,,Overcast,0,2012-11-07 10:15:00
4:35 AM,32.0,32.0,100,29.99,0.8,Calm,Calm,-,N/A,,Overcast,0,2012-11-07 10:35:00
4:55 AM,32.0,32.0,100,29.99,0.8,Calm,Calm,-,N/A,,Overcast,0,2012-11-07 10:55:00
5:15 AM,32.0,32.0,100,30.00,0.8,Calm,Calm,-,N/A,,Overcast,0,2012-11-07 11:15:00
5:35 AM,32.0,32.0,100,30.01,0.8,Calm,Calm,-,N/A,,Overcast,0,2012-11-07 11:35:00
5:55 AM,32.0,32.0,100,30.01,0.5,Calm,Calm,-,N/A,Fog,Fog,0,2012-11-07 11:55:00
6:15 AM,32.0,32.0,100,30.02,0.8,Calm,Calm,-,N/A,,Overcast,0,2012-11-07 12:15:00
6:35 AM,31.8,31.8,100,30.03,2.0,Calm,Calm,-,N/A,,Overcast,0,2012-11-07 12:35:00
6:55 AM,31.8,31.8,100,30.04,1.8,Calm,Calm,-,N/A,,Overcast,0,2012-11-07 12:55:00
7:15 AM,31.6,31.6,100,30.06,1.8,Calm,Calm,-,N/A,,Overcast,0,2012-11-07 13:15:00
7:55 AM,31.8,31.8,100,30.07,1.0,Calm,Calm,-,N/A,,Overcast,0,2012-11-07 13:55:00
8:15 AM,32.0,32.0,100,30.07,1.2,Calm,Calm,-,N/A,,Overcast,0,2012-11-07 14:15:00
8:35 AM,32.0,32.0,100,30.08,1.8,Calm,Calm,-,N/A,,Overcast,0,2012-11-07 14:35:00
8:55 AM,32.0,32.0,100,30.08,1.8,Calm,Calm,-,N/A,,Overcast,0,2012-11-07 14:55:00
9:15 AM,32.0,32.0,100,30.09,1.0,Calm,Calm,-,N/A,,Overcast,0,2012-11-07 15:15:00
9:35 AM,32.0,32.0,100,30.10,1.0,Calm,Calm,-,N/A,,Overcast,0,2012-11-07 15:35:00
9:55 AM,32.2,32.0,99,30.10,2.5,Calm,Calm,-,N/A,,Overcast,0,2012-11-07 15:55:00
10:15 AM,32.9,32.0,96,30.10,3.0,Calm,Calm,-,N/A,,Overcast,0,2012-11-07 16:15:00
10:35 AM,32.9,32.0,96,30.11,2.5,Calm,Calm,-,N/A,,Overcast,0,2012-11-07 16:35:00
10:55 AM,33.1,32.4,97,30.10,2.5,Calm,Calm,-,N/A,,Overcast,0,2012-11-07 16:55:00
11:15 AM,33.3,32.7,98,30.10,2.5,Calm,Calm,-,N/A,,Overcast,0,2012-11-07 17:15:00
11:35 AM,33.4,32.7,97,30.10,3.0,WNW,3.5,-,N/A,,Overcast,300,2012-11-07 17:35:00
11:55 AM,34.2,32.7,94,30.10,5.0,West,3.5,-,N/A,,Overcast,280,2012-11-07 17:55:00
12:15 PM,34.5,32.7,93,30.09,4.0,West,4.6,-,N/A,,Overcast,270,2012-11-07 18:15:00
12:35 PM,34.7,32.9,93,30.09,4.0,West,3.5,-,N/A,,Overcast,280,2012-11-07 18:35:00
12:55 PM,34.9,32.5,91,30.09,4.0,Calm,Calm,-,N/A,,Overcast,0,2012-11-07 18:55:00
1:15 PM,35.8,33.1,90,30.08,5.0,WSW,4.6,-,N/A,,Overcast,240,2012-11-07 19:15:00
1:35 PM,36.0,32.9,89,30.07,5.0,WSW,4.6,-,N/A,,Overcast,250,2012-11-07 19:35:00
1:55 PM,36.0,32.5,87,30.07,5.0,West,3.5,-,N/A,,Overcast,270,2012-11-07 19:55:00
2:15 PM,36.0,32.2,86,30.08,5.0,Calm,Calm,-,N/A,,Overcast,0,2012-11-07 20:15:00
2:35 PM,36.1,32.2,86,30.09,7.0,WSW,4.6,-,N/A,,Overcast,250,2012-11-07 20:35:00
2:55 PM,36.5,32.4,85,30.09,7.0,West,4.6,-,N/A,,Overcast,260,2012-11-07 20:55:00
3:15 PM,36.5,32.2,84,30.09,7.0,WSW,4.6,-,N/A,,Overcast,240,2012-11-07 21:15:00
3:35 PM,36.7,32.9,86,30.10,7.0,Calm,Calm,-,N/A,,Overcast,0,2012-11-07 21:35:00
3:55 PM,37.0,32.5,84,30.10,10.0,Calm,Calm,-,N/A,,Overcast,0,2012-11-07 21:55:00
4:15 PM,36.3,32.2,85,30.10,10.0,Calm,Calm,-,N/A,,Overcast,0,2012-11-07 22:15:00
4:35 PM,34.9,32.2,90,30.10,7.0,Calm,Calm,-,N/A,,Mostly Cloudy,0,2012-11-07 22:35:00
4:55 PM,33.1,32.0,96,30.11,7.0,SSW,3.5,-,N/A,,Mostly Cloudy,210,2012-11-07 22:55:00
5:15 PM,33.4,32.0,94,30.11,7.0,SW,3.5,-,N/A,,Overcast,220,2012-11-07 23:15:00
5:35 PM,33.4,32.0,94,30.12,7.0,SSW,5.8,-,N/A,,Overcast,200,2012-11-07 23:35:00
5:55 PM,32.9,32.0,96,30.12,5.0,SSW,4.6,-,N/A,,Overcast,200,2012-11-07 23:55:00
6:15 PM,32.9,32.0,96,30.12,5.0,South,4.6,-,N/A,,Overcast,180,2012-11-08 00:15:00
6:35 PM,32.5,31.8,97,30.13,5.0,SSW,3.5,-,N/A,,Overcast,200,2012-11-08 00:35:00
6:55 PM,32.4,32.0,99,30.13,4.0,Calm,Calm,-,N/A,,Overcast,0,2012-11-08 00:55:00
7:15 PM,32.4,32.0,99,30.13,5.0,SSW,4.6,-,N/A,,Overcast,200,2012-11-08 01:15:00
7:35 PM,32.5,32.0,98,30.13,4.0,SSW,3.5,-,N/A,,Overcast,200,2012-11-08 01:35:00
7:55 PM,32.4,32.0,99,30.13,4.0,Calm,Calm,-,N/A,,Overcast,0,2012-11-08 01:55:00
8:15 PM,32.4,32.0,99,30.13,5.0,Calm,Calm,-,N/A,,Overcast,0,2012-11-08 02:15:00
8:35 PM,32.2,32.0,99,30.13,5.0,Calm,Calm,-,N/A,,Overcast,0,2012-11-08 02:35:00
8:55 PM,32.2,32.0,99,30.13,4.0,Calm,Calm,-,N/A,,Overcast,0,2012-11-08 02:55:00
9:15 PM,32.2,32.0,99,30.13,5.0,Calm,Calm,-,N/A,,Overcast,0,2012-11-08 03:15:00
9:35 PM,32.2,32.0,99,30.13,5.0,Calm,Calm,-,N/A,,Overcast,0,2012-11-08 03:35:00
9:55 PM,32.4,32.0,99,30.13,4.0,Calm,Calm,-,N/A,,Overcast,0,2012-11-08 03:55:00
10:15 PM,32.2,32.0,99,30.12,4.0,Calm,Calm,-,N/A,,Overcast,0,2012-11-08 04:15:00
10:35 PM,32.2,32.0,99,30.12,4.0,Calm,Calm,-,N/A,,Overcast,0,2012-11-08 04:35:00
10:55 PM,32.4,32.0,99,30.12,4.0,Calm,Calm,-,N/A,,Overcast,0,2012-11-08 04:55:00
11:15 PM,32.5,32.0,98,30.13,5.0,Calm,Calm,-,N/A,,Overcast,0,2012-11-08 05:15:00
11:35 PM,32.5,32.0,98,30.12,5.0,Calm,Calm,-,N/A,,Overcast,0,2012-11-08 05:35:00
11:55 PM,32.5,32.0,98,30.12,5.0,Calm,Calm,-,N/A,,Overcast,0,2012-11-08 05:55:00